Weather in Lomki

Russia / Kostroma Oblast     57°56′57″N   42°34′09″E
temp.,
°C
wind,
m/s
gust,
m/s
humid.,
%
clouds,
%
prec.,
mm/h
press.,
hPa
HPBL,
m
14 may, fri
fri1400:00+13s239929 1.3 101789
03:00+10sw22965 1.3 101942
06:00+12sw26944 0.0 1019199
09:00+17ssw356824 0.0 1019711
12:00+20ssw2454100 0.0 10191454
15:00+21ssw235179 0.0 10181541
18:00+20s236399 0.0 1017323
21:00+14se2281100 0.1 101619
15 may, sat
sat1500:00+13se238396 0.3 101661
03:00+13ese2696100 2.8 1015136
06:00+14ese3897100 0.3 1014224
09:00+19se468293 0.3 1013353
12:00+22e1268100 1.5 1013514
15:00+25sse5957100 1.9 10101420
18:00+16se2493100 6.5 1010116
21:00+15sse311972 7.1 1011355
16 may, sun
sun1600:00+14s31198100 0.0 1011395
03:00+13s3109824 0.0 1011269
06:00+14s310954 0.0 1012409
09:00+18ssw597419 0.0 1012870
12:00+21ssw695722 0.1 10121798
15:00+19sw51163100 0.6 10121649
18:00+19sw4116931 0.2 10121317
21:00+15ssw3128765 0.2 1013420
17 may, mon
mon1700:00+13sw311935 0.0 1014272
03:00+11sw26960 0.0 1015128
06:00+14sw2687100 0.0 1016201
09:00+19sw3565100 0.0 1016774
12:00+22sw4552100 0.0 10161452
15:00+23sw344754 0.0 10161536
18:00+22s1164100 0.0 101526
21:00+16ese228435 0.0 101516
18 may, tue
tue1800:00+14ese368923 0.3 1015111
03:00+13e379489 0.4 1015138
06:00+16ese379068 0.0 1014175
09:00+22se46615 0.0 1014477
12:00+26sse464144 0.0 1013989
15:00+27sse58365 0.0 10122012
18:00+24se411435 0.0 1011542
21:00+17se3147229 0.0 1011276